Location: Pescara
(42.4670°N, 14.2170°E)
Time: 02:36:11
(UTC+02:00)

ISS - Pass Details

Date: 12 May 2021
Orbit: 417 x 422 km, 51.6° (Epoch: 14 June)

Event Time Altitude Azimuth Distance (km) Brightness Sun altitude
Rises 04:25:42 0° 306° (NW) 2,375 -0.1 -13.0°
Reaches altitude 10° 04:27:55 10° 315° (NW) 1,509 -1.0 -12.7°
Maximum altitude 04:31:05 37° 25° (NNE) 680 -2.1 -12.3°
Drops below altitude 10° 04:34:15 10° 94° (E) 1,505 -0.2 -11.8°
Sets 04:36:27 0° 103° (ESE) 2,367 0.7 -11.5°
